Time,TemperatureF,DewpointF,PressureIn,WindDirection,WindDirectionDegrees,WindSpeedMPH,WindSpeedGustMPH,Humidity,HourlyPrecipIn,Conditions,Clouds,dailyrainin,SolarRadiationWatts/m^2,SoftwareType,DateUTC
2013-02-01 00:00:00,33.7,22.1,29.93,SW,227,4.0,9.0,62,0.00,,SKC,0.23,0.00,VWS V14.01,2013-02-01 05:00:00,
2013-02-01 00:02:00,33.7,22.1,29.93,SW,228,5.0,9.0,62,0.00,,SKC,0.23,0.00,VWS V14.01,2013-02-01 05:02:00,
2013-02-01 00:03:00,33.8,22.2,29.93,SW,228,4.0,9.0,62,0.00,,SKC,0.23,0.00,VWS V14.01,2013-02-01 05:03:00,
2013-02-01 00:05:00,33.8,22.2,29.92,SW,228,4.0,4.0,62,0.00,,SKC,0.00,0.00,VWS V14.01,2013-02-01 05:05:00,
2013-02-01 00:08:00,33.9,22.3,29.93,SW,227,2.0,4.0,62,0.00,,SKC,0.00,0.00,VWS V14.01,2013-02-01 05:08:00,
2013-02-01 00:11:00,33.9,21.9,29.93,SW,226,5.0,7.0,61,0.00,,SKC,0.00,0.00,VWS V14.01,2013-02-01 05:11:00,
2013-02-01 00:13:00,34.0,22.0,29.92,SW,225,7.0,7.0,61,0.00,,SKC,0.00,0.00,VWS V14.01,2013-02-01 05:13:00,
2013-02-01 00:16:00,34.1,22.1,29.92,SW,225,3.0,7.0,61,0.00,,SKC,0.00,0.00,VWS V14.01,2013-02-01 05:16:00,
2013-02-01 00:18:00,34.2,22.2,29.92,SW,225,3.0,7.0,61,0.00,,SKC,0.00,0.00,VWS V14.01,2013-02-01 05:18:00,
2013-02-01 00:19:00,34.2,22.2,29.92,SW,225,3.0,7.0,61,0.00,,SKC,0.00,0.00,VWS V14.01,2013-02-01 05:19:00,
2013-02-01 00:21:00,34.2,22.2,29.92,SW,225,3.0,8.0,61,0.00,,SKC,0.00,0.00,VWS V14.01,2013-02-01 05:21:00,
2013-02-01 00:23:00,34.3,22.3,29.92,SW,221,4.0,9.0,61,0.00,,SKC,0.00,0.00,VWS V14.01,2013-02-01 05:23:00,
2013-02-01 00:24:00,34.3,22.3,29.92,SW,221,5.0,9.0,61,0.00,,SKC,0.00,0.00,VWS V14.01,2013-02-01 05:24:00,
2013-02-01 00:26:00,34.4,22.4,29.92,SW,220,6.0,9.0,61,0.00,,SKC,0.00,0.00,VWS V14.01,2013-02-01 05:26:00,
2013-02-01 00:28:00,34.4,22.4,29.92,SW,219,6.0,9.0,61,0.00,,SKC,0.00,0.00,VWS V14.01,2013-02-01 05:28:00,
2013-02-01 00:29:00,34.4,22.4,29.92,SW,219,6.0,9.0,61,0.00,,SKC,0.00,0.00,VWS V14.01,2013-02-01 05:29:00,
2013-02-01 00:30:00,34.4,22.4,29.92,SW,219,0.0,9.0,61,0.00,,SKC,0.00,0.00,VWS V14.01,2013-02-01 05:30:00,
2013-02-01 00:31:00,34.4,22.4,29.92,SW,220,1.0,9.0,61,0.00,,SKC,0.00,0.00,VWS V14.01,2013-02-01 05:31:00,
2013-02-01 00:33:00,34.4,22.4,29.92,SW,220,0.0,0.0,61,0.00,,SKC,0.00,0.00,VWS V14.01,2013-02-01 05:33:00,
2013-02-01 00:34:00,34.4,22.4,29.92,SW,220,2.0,3.0,61,0.00,,SKC,0.00,0.00,VWS V14.01,2013-02-01 05:34:00,
2013-02-01 00:35:00,34.3,22.3,29.92,SW,220,4.0,4.0,61,0.00,,SKC,0.00,0.00,VWS V14.01,2013-02-01 05:35:00,
2013-02-01 00:37:00,34.3,21.9,29.92,SW,220,4.0,5.0,60,0.00,,SKC,0.00,0.00,VWS V14.01,2013-02-01 05:37:00,
2013-02-01 00:38:00,34.4,22.0,29.92,SW,219,2.0,8.0,60,0.00,,SKC,0.00,0.00,VWS V14.01,2013-02-01 05:38:00,
2013-02-01 00:39:00,34.4,22.0,29.92,SW,219,3.0,8.0,60,0.00,,SKC,0.00,0.00,VWS V14.01,2013-02-01 05:39:00,
2013-02-01 00:40:00,34.4,22.0,29.92,SW,219,0.0,8.0,60,0.00,,SKC,0.00,0.00,VWS V14.01,2013-02-01 05:40:00,
2013-02-01 00:42:00,34.4,22.4,29.92,SW,219,1.0,8.0,61,0.00,,SKC,0.00,0.00,VWS V14.01,2013-02-01 05:42:00,
2013-02-01 00:44:00,34.4,22.4,29.92,SW,218,4.0,8.0,61,0.00,,SKC,0.00,0.00,VWS V14.01,2013-02-01 05:44:00,
2013-02-01 00:45:00,34.4,22.4,29.92,SW,217,6.0,8.0,61,0.00,,SKC,0.00,0.00,VWS V14.01,2013-02-01 05:45:00,
2013-02-01 00:47:00,34.4,22.0,29.92,SW,217,4.0,8.0,60,0.00,,SKC,0.00,0.00,VWS V14.01,2013-02-01 05:47:00,
2013-02-01 00:49:00,34.4,22.0,29.92,SW,217,4.0,8.0,60,0.00,,SKC,0.00,0.00,VWS V14.01,2013-02-01 05:49:00,
2013-02-01 00:50:00,34.4,22.0,29.92,SW,217,2.0,8.0,60,0.00,,SKC,0.00,0.00,VWS V14.01,2013-02-01 05:50:00,
2013-02-01 00:53:00,34.4,22.0,29.92,SW,217,4.0,8.0,60,0.00,,SKC,0.00,0.00,VWS V14.01,2013-02-01 05:53:00,
2013-02-01 00:54:00,34.4,22.0,29.92,SW,217,3.0,8.0,60,0.00,,SKC,0.00,0.00,VWS V14.01,2013-02-01 05:54:00,
2013-02-01 00:55:00,34.4,22.0,29.92,SW,217,2.0,8.0,60,0.00,,SKC,0.00,0.00,VWS V14.01,2013-02-01 05:55:00,
2013-02-01 00:58:00,34.4,22.0,29.92,SW,217,0.0,8.0,60,0.00,,SKC,0.00,0.00,VWS V14.01,2013-02-01 05:58:00,
2013-02-01 01:00:00,34.4,22.4,29.92,SW,217,4.0,8.0,61,0.00,,SKC,0.00,0.00,VWS V14.01,2013-02-01 06:00:00,
2013-02-01 01:03:00,34.2,21.8,29.92,SW,217,3.0,8.0,60,0.00,,SKC,0.00,0.00,VWS V14.01,2013-02-01 06:03:00,
2013-02-01 01:05:00,34.1,22.1,29.92,SW,217,0.0,5.0,61,0.00,,SKC,0.00,0.00,VWS V14.01,2013-02-01 06:05:00,
2013-02-01 01:06:00,34.1,22.1,29.92,SW,217,0.0,5.0,61,0.00,,SKC,0.00,0.00,VWS V14.01,2013-02-01 06:06:00,
2013-02-01 01:08:00,34.0,22.0,29.92,SW,217,4.0,5.0,61,0.00,,SKC,0.00,0.00,VWS V14.01,2013-02-01 06:08:00,
2013-02-01 01:10:00,34.0,22.0,29.92,SW,217,5.0,6.0,61,0.00,,SKC,0.00,0.00,VWS V14.01,2013-02-01 06:10:00,
2013-02-01 01:11:00,34.0,22.0,29.92,SW,217,4.0,6.0,61,0.00,,SKC,0.00,0.00,VWS V14.01,2013-02-01 06:11:00,
2013-02-01 01:13:00,34.0,22.0,29.92,SW,217,5.0,6.0,61,0.00,,SKC,0.00,0.00,VWS V14.01,2013-02-01 06:13:00,
2013-02-01 01:15:00,34.0,22.0,29.92,SW,216,3.0,6.0,61,0.00,,SKC,0.00,0.00,VWS V14.01,2013-02-01 06:15:00,
2013-02-01 01:16:00,34.0,22.0,29.91,SW,215,5.0,6.0,61,0.00,,SKC,0.00,0.00,VWS V14.01,2013-02-01 06:16:00,
2013-02-01 01:18:00,34.0,22.0,29.91,SW,214,3.0,7.0,61,0.00,,SKC,0.00,0.00,VWS V14.01,2013-02-01 06:18:00,
2013-02-01 01:20:00,33.9,21.9,29.91,SSW,213,3.0,7.0,61,0.00,,SKC,0.00,0.00,VWS V14.01,2013-02-01 06:20:00,
2013-02-01 01:21:00,34.0,22.0,29.91,SSW,213,2.0,7.0,61,0.00,,SKC,0.00,0.00,VWS V14.01,2013-02-01 06:21:00,
2013-02-01 01:22:00,33.9,21.9,29.90,SSW,205,3.0,7.0,61,0.00,,SKC,0.00,0.00,VWS V14.01,2013-02-01 06:22:00,
2013-02-01 01:24:00,33.8,21.8,29.90,SSW,205,6.0,7.0,61,0.00,,SKC,0.00,0.00,VWS V14.01,2013-02-01 06:24:00,
2013-02-01 01:25:00,33.8,21.8,29.90,SSW,195,7.0,9.0,61,0.00,,SKC,0.00,0.00,VWS V14.01,2013-02-01 06:25:00,
2013-02-01 01:26:00,33.8,21.8,29.90,SSW,195,5.0,9.0,61,0.00,,SKC,0.00,0.00,VWS V14.01,2013-02-01 06:26:00,
2013-02-01 01:28:00,33.7,22.1,29.90,South,183,3.0,10.0,62,0.00,,SKC,0.00,0.00,VWS V14.01,2013-02-01 06:28:00,
2013-02-01 01:29:00,33.7,22.1,29.89,South,180,4.0,10.0,62,0.00,,SKC,0.00,0.00,VWS V14.01,2013-02-01 06:29:00,
2013-02-01 01:30:00,33.7,22.1,29.89,South,180,6.0,10.0,62,0.00,,SKC,0.00,0.00,VWS V14.01,2013-02-01 06:30:00,
2013-02-01 01:31:00,33.7,22.5,29.89,South,180,5.0,10.0,63,0.00,,SKC,0.00,0.00,VWS V14.01,2013-02-01 06:31:00,
2013-02-01 01:33:00,33.6,22.0,29.89,South,179,8.0,10.0,62,0.00,,SKC,0.00,0.00,VWS V14.01,2013-02-01 06:33:00,
2013-02-01 01:34:00,33.7,22.1,29.89,South,178,4.0,6.0,62,0.00,,SKC,0.00,0.00,VWS V14.01,2013-02-01 06:34:00,
2013-02-01 01:35:00,33.7,22.1,29.89,South,179,8.0,8.0,62,0.00,,SKC,0.00,0.00,VWS V14.01,2013-02-01 06:35:00,
2013-02-01 01:37:00,33.8,21.8,29.90,South,181,5.0,8.0,61,0.00,,SKC,0.00,0.00,VWS V14.01,2013-02-01 06:37:00,
2013-02-01 01:38:00,33.8,21.8,29.89,South,181,4.0,8.0,61,0.00,,SKC,0.00,0.00,VWS V14.01,2013-02-01 06:38:00,
2013-02-01 01:40:00,33.9,21.9,29.89,South,180,5.0,10.0,61,0.00,,SKC,0.00,0.00,VWS V14.01,2013-02-01 06:40:00,
2013-02-01 01:42:00,34.0,22.0,29.89,South,180,2.0,10.0,61,0.00,,SKC,0.00,0.00,VWS V14.01,2013-02-01 06:42:00,
2013-02-01 01:43:00,34.0,22.4,29.89,South,180,5.0,10.0,62,0.00,,SKC,0.00,0.00,VWS V14.01,2013-02-01 06:43:00,
2013-02-01 01:45:00,33.9,21.9,29.89,South,180,4.0,10.0,61,0.00,,SKC,0.00,0.00,VWS V14.01,2013-02-01 06:45:00,
2013-02-01 01:47:00,33.9,21.9,29.89,South,180,6.0,10.0,61,0.00,,SKC,0.00,0.00,VWS V14.01,2013-02-01 06:47:00,
2013-02-01 01:48:00,33.9,21.9,29.89,South,180,5.0,10.0,61,0.00,,SKC,0.00,0.00,VWS V14.01,2013-02-01 06:48:00,
2013-02-01 01:50:00,33.8,22.2,29.88,South,178,6.0,10.0,62,0.00,,SKC,0.00,0.00,VWS V14.01,2013-02-01 06:50:00,
2013-02-01 01:51:00,33.8,22.2,29.88,South,178,5.0,10.0,62,0.00,,SKC,0.00,0.00,VWS V14.01,2013-02-01 06:51:00,
2013-02-01 01:52:00,33.8,22.2,29.88,South,177,6.0,10.0,62,0.00,,SKC,0.00,0.00,VWS V14.01,2013-02-01 06:52:00,
2013-02-01 01:53:00,33.7,22.1,29.88,South,175,5.0,10.0,62,0.00,,SKC,0.00,0.00,VWS V14.01,2013-02-01 06:53:00,
2013-02-01 01:56:00,33.7,22.1,29.87,South,175,9.0,10.0,62,0.00,,SKC,0.00,0.00,VWS V14.01,2013-02-01 06:56:00,
2013-02-01 01:57:00,33.6,22.0,29.87,South,178,4.0,12.0,62,0.00,,SKC,0.00,0.00,VWS V14.01,2013-02-01 06:57:00,
2013-02-01 01:58:00,33.5,21.9,29.87,South,180,6.0,12.0,62,0.00,,SKC,0.00,0.00,VWS V14.01,2013-02-01 06:58:00,
2013-02-01 02:00:00,33.3,22.1,29.87,South,176,7.0,12.0,63,0.00,,SKC,0.00,0.00,VWS V14.01,2013-02-01 07:00:00,
2013-02-01 02:01:00,33.4,22.2,29.87,South,179,6.0,12.0,63,0.00,,SKC,0.00,0.00,VWS V14.01,2013-02-01 07:01:00,
2013-02-01 02:03:00,33.3,22.1,29.87,South,176,9.0,12.0,63,0.00,,SKC,0.00,0.00,VWS V14.01,2013-02-01 07:03:00,
2013-02-01 02:04:00,33.3,22.1,29.87,South,176,5.0,7.0,63,0.00,,SKC,0.00,0.00,VWS V14.01,2013-02-01 07:04:00,
2013-02-01 02:06:00,33.3,22.1,29.87,South,169,9.0,13.0,63,0.00,,SKC,0.00,0.00,VWS V14.01,2013-02-01 07:06:00,
2013-02-01 02:08:00,33.3,22.1,29.86,South,171,8.0,13.0,63,0.00,,SKC,0.00,0.00,VWS V14.01,2013-02-01 07:08:00,
2013-02-01 02:09:00,33.3,22.1,29.87,South,170,11.0,14.0,63,0.00,,SKC,0.00,0.00,VWS V14.01,2013-02-01 07:09:00,
2013-02-01 02:11:00,33.3,22.1,29.86,South,169,10.0,14.0,63,0.00,,SKC,0.00,0.00,VWS V14.01,2013-02-01 07:11:00,
2013-02-01 02:12:00,33.3,22.1,29.86,South,169,7.0,14.0,63,0.00,,SKC,0.00,0.00,VWS V14.01,2013-02-01 07:12:00,
2013-02-01 02:13:00,33.4,22.2,29.86,South,169,9.0,14.0,63,0.00,,SKC,0.00,0.00,VWS V14.01,2013-02-01 07:13:00,
2013-02-01 02:14:00,33.4,22.2,29.86,South,171,6.0,14.0,63,0.00,,SKC,0.00,0.00,VWS V14.01,2013-02-01 07:14:00,
2013-02-01 02:16:00,33.4,22.2,29.85,South,171,5.0,14.0,63,0.00,,SKC,0.00,0.00,VWS V14.01,2013-02-01 07:16:00,
2013-02-01 02:17:00,33.4,22.2,29.85,South,171,6.0,14.0,63,0.00,,SKC,0.00,0.00,VWS V14.01,2013-02-01 07:17:00,
2013-02-01 02:18:00,33.4,22.2,29.85,South,171,7.0,14.0,63,0.00,,SKC,0.00,0.00,VWS V14.01,2013-02-01 07:18:00,
2013-02-01 02:19:00,33.4,22.2,29.85,South,171,5.0,14.0,63,0.00,,SKC,0.00,0.00,VWS V14.01,2013-02-01 07:19:00,
2013-02-01 02:22:00,33.4,22.2,29.85,South,171,6.0,14.0,63,0.00,,SKC,0.00,0.00,VWS V14.01,2013-02-01 07:22:00,
2013-02-01 02:23:00,33.4,22.2,29.85,South,176,9.0,14.0,63,0.00,,SKC,0.00,0.00,VWS V14.01,2013-02-01 07:23:00,
2013-02-01 02:25:00,33.4,22.2,29.85,South,178,9.0,14.0,63,0.00,,SKC,0.00,0.00,VWS V14.01,2013-02-01 07:25:00,
2013-02-01 02:27:00,33.4,22.2,29.86,South,176,7.0,14.0,63,0.00,,SKC,0.00,0.00,VWS V14.01,2013-02-01 07:27:00,
2013-02-01 02:29:00,33.4,22.2,29.85,South,173,6.0,14.0,63,0.00,,SKC,0.00,0.00,VWS V14.01,2013-02-01 07:29:00,
2013-02-01 02:30:00,33.4,22.2,29.86,South,175,10.0,14.0,63,0.00,,SKC,0.00,0.00,VWS V14.01,2013-02-01 07:30:00,
2013-02-01 02:32:00,33.4,22.5,29.85,South,175,10.0,14.0,64,0.00,,SKC,0.00,0.00,VWS V14.01,2013-02-01 07:32:00,
2013-02-01 02:33:00,33.4,22.5,29.85,South,175,8.0,14.0,64,0.00,,SKC,0.00,0.00,VWS V14.01,2013-02-01 07:33:00,
2013-02-01 02:34:00,33.3,22.5,29.86,South,176,10.0,11.0,64,0.00,,SKC,0.00,0.00,VWS V14.01,2013-02-01 07:34:00,
2013-02-01 02:35:00,33.3,22.5,29.85,South,178,9.0,11.0,64,0.00,,SKC,0.00,0.00,VWS V14.01,2013-02-01 07:35:00,
2013-02-01 02:38:00,33.2,22.0,29.85,South,171,6.0,11.0,63,0.00,,SKC,0.00,0.00,VWS V14.01,2013-02-01 07:38:00,
2013-02-01 02:39:00,33.2,22.4,29.85,SSE,165,6.0,11.0,64,0.00,,SKC,0.00,0.00,VWS V14.01,2013-02-01 07:39:00,
2013-02-01 02:40:00,33.2,22.4,29.84,SSE,163,9.0,12.0,64,0.00,,SKC,0.00,0.00,VWS V14.01,2013-02-01 07:40:00,
2013-02-01 02:43:00,33.2,22.4,29.84,South,172,5.0,12.0,64,0.00,,SKC,0.00,0.00,VWS V14.01,2013-02-01 07:43:00,
2013-02-01 02:44:00,33.2,22.4,29.84,South,170,11.0,12.0,64,0.00,,SKC,0.00,0.00,VWS V14.01,2013-02-01 07:44:00,
2013-02-01 02:46:00,33.2,22.4,29.84,South,169,5.0,12.0,64,0.00,,SKC,0.00,0.00,VWS V14.01,2013-02-01 07:46:00,
2013-02-01 02:48:00,33.2,22.4,29.84,South,169,5.0,12.0,64,0.00,,SKC,0.00,0.00,VWS V14.01,2013-02-01 07:48:00,
2013-02-01 02:49:00,33.2,22.4,29.84,South,169,4.0,12.0,64,0.00,,SKC,0.00,0.00,VWS V14.01,2013-02-01 07:49:00,
2013-02-01 02:51:00,33.2,22.4,29.83,South,173,11.0,12.0,64,0.00,,SKC,0.00,0.00,VWS V14.01,2013-02-01 07:51:00,
2013-02-01 02:53:00,33.2,22.4,29.83,South,179,10.0,14.0,64,0.00,,SKC,0.00,0.00,VWS V14.01,2013-02-01 07:53:00,
2013-02-01 02:54:00,33.3,22.5,29.83,SSE,168,13.0,14.0,64,0.00,,SKC,0.00,0.00,VWS V14.01,2013-02-01 07:54:00,
2013-02-01 02:55:00,33.3,22.5,29.83,SSE,168,8.0,14.0,64,0.00,,SKC,0.00,0.00,VWS V14.01,2013-02-01 07:55:00,
2013-02-01 02:57:00,33.3,22.5,29.83,South,177,7.0,14.0,64,0.00,,SKC,0.00,0.00,VWS V14.01,2013-02-01 07:57:00,
2013-02-01 02:58:00,33.4,22.5,29.83,South,173,7.0,14.0,64,0.00,,SKC,0.00,0.00,VWS V14.01,2013-02-01 07:58:00,
2013-02-01 03:00:00,33.4,22.5,29.83,South,173,5.0,14.0,64,0.00,,SKC,0.00,0.00,VWS V14.01,2013-02-01 08:00:00,
2013-02-01 03:03:00,33.4,22.5,29.83,South,172,3.0,14.0,64,0.00,,SKC,0.00,0.00,VWS V14.01,2013-02-01 08:03:00,
2013-02-01 03:04:00,33.4,22.9,29.83,South,173,3.0,4.0,65,0.00,,SKC,0.00,0.00,VWS V14.01,2013-02-01 08:04:00,
2013-02-01 03:05:00,33.4,22.9,29.83,South,174,7.0,7.0,65,0.00,,SKC,0.00,0.00,VWS V14.01,2013-02-01 08:05:00,
2013-02-01 03:08:00,33.4,22.9,29.83,South,173,5.0,7.0,65,0.00,,SKC,0.00,0.00,VWS V14.01,2013-02-01 08:08:00,
2013-02-01 03:09:00,33.4,22.9,29.83,South,173,3.0,11.0,65,0.00,,SKC,0.00,0.00,VWS V14.01,2013-02-01 08:09:00,
2013-02-01 03:10:00,33.5,23.0,29.83,South,175,3.0,11.0,65,0.00,,SKC,0.00,0.00,VWS V14.01,2013-02-01 08:10:00,
2013-02-01 03:13:00,33.5,23.0,29.83,South,175,6.0,11.0,65,0.00,,SKC,0.00,0.00,VWS V14.01,2013-02-01 08:13:00,
2013-02-01 03:14:00,33.5,23.0,29.83,South,176,4.0,11.0,65,0.00,,SKC,0.00,0.00,VWS V14.01,2013-02-01 08:14:00,
2013-02-01 03:15:00,33.5,23.0,29.83,South,175,6.0,11.0,65,0.00,,SKC,0.00,0.00,VWS V14.01,2013-02-01 08:15:00,
2013-02-01 03:16:00,33.5,23.0,29.83,South,175,5.0,11.0,65,0.00,,SKC,0.00,0.00,VWS V14.01,2013-02-01 08:16:00,
2013-02-01 03:19:00,33.6,23.1,29.83,South,175,5.0,11.0,65,0.00,,SKC,0.00,0.00,VWS V14.01,2013-02-01 08:19:00,
2013-02-01 03:20:00,33.6,23.1,29.83,South,175,4.0,11.0,65,0.00,,SKC,0.00,0.00,VWS V14.01,2013-02-01 08:20:00,
2013-02-01 03:21:00,33.6,23.1,29.83,South,175,4.0,11.0,65,0.00,,SKC,0.00,0.00,VWS V14.01,2013-02-01 08:21:00,
2013-02-01 03:24:00,33.7,23.2,29.82,South,179,4.0,11.0,65,0.00,,SKC,0.00,0.00,VWS V14.01,2013-02-01 08:24:00,
2013-02-01 03:25:00,33.7,23.2,29.82,South,179,5.0,11.0,65,0.00,,SKC,0.00,0.00,VWS V14.01,2013-02-01 08:25:00,
2013-02-01 03:26:00,33.8,23.3,29.82,South,179,4.0,11.0,65,0.00,,SKC,0.00,0.00,VWS V14.01,2013-02-01 08:26:00,
2013-02-01 03:30:00,33.9,23.4,29.82,South,175,5.0,11.0,65,0.00,,SKC,0.00,0.00,VWS V14.01,2013-02-01 08:30:00,
2013-02-01 03:31:00,33.9,23.4,29.83,South,175,6.0,11.0,65,0.00,,SKC,0.00,0.00,VWS V14.01,2013-02-01 08:31:00,
2013-02-01 03:32:00,33.9,23.4,29.82,South,175,3.0,11.0,65,0.00,,SKC,0.00,0.00,VWS V14.01,2013-02-01 08:32:00,
2013-02-01 03:35:00,34.0,23.1,29.82,South,175,2.0,10.0,64,0.00,,SKC,0.00,0.00,VWS V14.01,2013-02-01 08:35:00,
2013-02-01 03:36:00,34.1,23.6,29.82,South,175,6.0,10.0,65,0.00,,SKC,0.00,0.00,VWS V14.01,2013-02-01 08:36:00,
2013-02-01 03:37:00,34.1,23.6,29.82,South,175,2.0,10.0,65,0.00,,SKC,0.00,0.00,VWS V14.01,2013-02-01 08:37:00,
2013-02-01 03:40:00,34.1,23.2,29.82,South,180,6.0,10.0,64,0.00,,SKC,0.00,0.00,VWS V14.01,2013-02-01 08:40:00,
2013-02-01 03:41:00,34.1,23.6,29.82,South,181,5.0,10.0,65,0.00,,SKC,0.00,0.00,VWS V14.01,2013-02-01 08:41:00,
2013-02-01 03:42:00,34.2,23.7,29.82,South,186,5.0,10.0,65,0.00,,SKC,0.00,0.00,VWS V14.01,2013-02-01 08:42:00,
2013-02-01 03:45:00,34.2,23.7,29.82,South,186,9.0,10.0,65,0.00,,SKC,0.00,0.00,VWS V14.01,2013-02-01 08:45:00,
2013-02-01 03:46:00,34.3,23.4,29.82,South,186,6.0,10.0,64,0.00,,SKC,0.00,0.00,VWS V14.01,2013-02-01 08:46:00,
2013-02-01 03:47:00,34.3,23.4,29.82,South,186,6.0,10.0,64,0.00,,SKC,0.00,0.00,VWS V14.01,2013-02-01 08:47:00,
2013-02-01 03:50:00,34.4,23.9,29.81,South,190,9.0,10.0,65,0.00,,SKC,0.00,0.00,VWS V14.01,2013-02-01 08:50:00,
2013-02-01 03:51:00,34.4,23.9,29.81,SSW,192,5.0,10.0,65,0.00,,SKC,0.00,0.00,VWS V14.01,2013-02-01 08:51:00,
2013-02-01 03:52:00,34.4,23.9,29.82,SSW,193,7.0,10.0,65,0.00,,SKC,0.00,0.00,VWS V14.01,2013-02-01 08:52:00,
2013-02-01 03:55:00,34.4,24.2,29.82,SSW,207,9.0,11.0,66,0.00,,SKC,0.00,0.00,VWS V14.01,2013-02-01 08:55:00,
2013-02-01 03:56:00,34.4,24.2,29.82,SSW,207,5.0,11.0,66,0.00,,SKC,0.00,0.00,VWS V14.01,2013-02-01 08:56:00,
2013-02-01 03:57:00,34.4,24.2,29.82,SSW,208,4.0,11.0,66,0.00,,SKC,0.00,0.00,VWS V14.01,2013-02-01 08:57:00,
2013-02-01 04:00:00,34.4,23.9,29.82,SSW,208,7.0,11.0,65,0.00,,SKC,0.00,0.00,VWS V14.01,2013-02-01 09:00:00,
2013-02-01 04:02:00,34.4,23.9,29.82,SSW,208,6.0,11.0,65,0.00,,SKC,0.00,0.00,VWS V14.01,2013-02-01 09:02:00,
2013-02-01 04:03:00,34.4,23.9,29.82,SSW,207,4.0,11.0,65,0.00,,SKC,0.00,0.00,VWS V14.01,2013-02-01 09:03:00,
2013-02-01 04:05:00,34.4,24.2,29.81,SSW,210,9.0,11.0,66,0.00,,SKC,0.00,0.00,VWS V14.01,2013-02-01 09:05:00,
2013-02-01 04:07:00,34.4,23.9,29.81,SSW,210,5.0,11.0,65,0.00,,SKC,0.00,0.00,VWS V14.01,2013-02-01 09:07:00,
2013-02-01 04:08:00,34.4,23.9,29.82,SSW,211,6.0,11.0,65,0.00,,SKC,0.00,0.00,VWS V14.01,2013-02-01 09:08:00,
2013-02-01 04:11:00,34.4,24.2,29.82,SSW,211,6.0,11.0,66,0.00,,SKC,0.00,0.00,VWS V14.01,2013-02-01 09:11:00,
2013-02-01 04:12:00,34.4,24.2,29.82,SSW,211,5.0,11.0,66,0.00,,SKC,0.00,0.00,VWS V14.01,2013-02-01 09:12:00,
2013-02-01 04:13:00,34.4,24.2,29.82,SSW,211,4.0,11.0,66,0.00,,SKC,0.00,0.00,VWS V14.01,2013-02-01 09:13:00,
2013-02-01 04:16:00,34.4,24.2,29.82,SSW,211,4.0,11.0,66,0.00,,SKC,0.00,0.00,VWS V14.01,2013-02-01 09:16:00,
2013-02-01 04:17:00,34.4,24.2,29.82,SSW,211,4.0,11.0,66,0.00,,SKC,0.00,0.00,VWS V14.01,2013-02-01 09:17:00,
2013-02-01 04:18:00,34.4,24.6,29.82,SSW,210,5.0,11.0,67,0.00,,SKC,0.00,0.00,VWS V14.01,2013-02-01 09:18:00,
2013-02-01 04:19:00,34.4,24.6,29.82,SSW,211,3.0,11.0,67,0.00,,SKC,0.00,0.00,VWS V14.01,2013-02-01 09:19:00,
2013-02-01 04:21:00,34.4,24.6,29.82,SSW,211,3.0,11.0,67,0.00,,SKC,0.00,0.00,VWS V14.01,2013-02-01 09:21:00,
2013-02-01 04:22:00,34.4,24.2,29.82,SSW,211,3.0,11.0,66,0.00,,SKC,0.00,0.00,VWS V14.01,2013-02-01 09:22:00,
2013-02-01 04:23:00,34.4,24.2,29.82,SSW,211,3.0,11.0,66,0.00,,SKC,0.00,0.00,VWS V14.01,2013-02-01 09:23:00,
2013-02-01 04:24:00,34.4,24.2,29.82,SSW,211,3.0,11.0,66,0.00,,SKC,0.00,0.00,VWS V14.01,2013-02-01 09:24:00,
2013-02-01 04:26:00,34.4,24.2,29.82,SSW,210,3.0,11.0,66,0.00,,SKC,0.00,0.00,VWS V14.01,2013-02-01 09:26:00,
2013-02-01 04:27:00,34.4,24.2,29.81,SSW,210,2.0,11.0,66,0.00,,SKC,0.00,0.00,VWS V14.01,2013-02-01 09:27:00,
2013-02-01 04:28:00,34.4,24.2,29.81,SSW,211,1.0,11.0,66,0.00,,SKC,0.00,0.00,VWS V14.01,2013-02-01 09:28:00,
2013-02-01 04:29:00,34.4,24.2,29.81,SSW,211,2.0,11.0,66,0.00,,SKC,0.00,0.00,VWS V14.01,2013-02-01 09:29:00,
2013-02-01 04:30:00,34.3,24.5,29.82,SSW,211,1.0,11.0,67,0.00,,SKC,0.00,0.00,VWS V14.01,2013-02-01 09:30:00,
2013-02-01 04:31:00,34.4,24.6,29.82,SSW,210,2.0,11.0,67,0.00,,SKC,0.00,0.00,VWS V14.01,2013-02-01 09:31:00,
2013-02-01 04:33:00,34.3,24.5,29.82,SSW,211,0.0,11.0,67,0.00,,SKC,0.00,0.00,VWS V14.01,2013-02-01 09:33:00,
2013-02-01 04:34:00,34.3,24.5,29.81,SSW,210,1.0,1.0,67,0.00,,SKC,0.00,0.00,VWS V14.01,2013-02-01 09:34:00,
2013-02-01 04:36:00,34.2,24.4,29.81,SSW,211,2.0,4.0,67,0.00,,SKC,0.00,0.00,VWS V14.01,2013-02-01 09:36:00,
2013-02-01 04:38:00,34.2,24.8,29.81,SSW,211,1.0,4.0,68,0.00,,SKC,0.00,0.00,VWS V14.01,2013-02-01 09:38:00,
2013-02-01 04:39:00,34.1,24.7,29.81,SSW,211,2.0,4.0,68,0.00,,SKC,0.00,0.00,VWS V14.01,2013-02-01 09:39:00,
2013-02-01 04:41:00,34.1,24.7,29.81,SSW,211,2.0,4.0,68,0.00,,SKC,0.00,0.00,VWS V14.01,2013-02-01 09:41:00,
2013-02-01 04:43:00,34.1,24.3,29.81,SSW,210,3.0,5.0,67,0.00,,SKC,0.00,0.00,VWS V14.01,2013-02-01 09:43:00,
2013-02-01 04:44:00,34.1,24.3,29.81,SSW,210,2.0,5.0,67,0.00,,SKC,0.00,0.00,VWS V14.01,2013-02-01 09:44:00,
2013-02-01 04:46:00,34.1,24.3,29.82,SSW,211,4.0,6.0,67,0.00,,SKC,0.00,0.00,VWS V14.01,2013-02-01 09:46:00,
2013-02-01 04:48:00,34.1,24.3,29.82,SSW,211,2.0,6.0,67,0.00,,SKC,0.00,0.00,VWS V14.01,2013-02-01 09:48:00,
2013-02-01 04:49:00,34.1,24.3,29.82,SSW,211,4.0,6.0,67,0.00,,SKC,0.00,0.00,VWS V14.01,2013-02-01 09:49:00,
2013-02-01 04:50:00,34.1,24.3,29.82,SSW,211,4.0,6.0,67,0.00,,SKC,0.00,0.00,VWS V14.01,2013-02-01 09:50:00,
2013-02-01 04:51:00,34.2,24.4,29.82,SSW,211,6.0,7.0,67,0.00,,SKC,0.00,0.00,VWS V14.01,2013-02-01 09:51:00,
2013-02-01 04:53:00,34.3,24.9,29.82,SSW,211,5.0,7.0,68,0.00,,SKC,0.00,0.00,VWS V14.01,2013-02-01 09:53:00,
2013-02-01 04:55:00,34.3,24.9,29.82,SSW,213,4.0,7.0,68,0.00,,SKC,0.00,0.00,VWS V14.01,2013-02-01 09:55:00,
2013-02-01 04:57:00,34.4,25.0,29.82,SSW,213,6.0,7.0,68,0.00,,SKC,0.00,0.00,VWS V14.01,2013-02-01 09:57:00,
2013-02-01 04:58:00,34.4,25.0,29.83,SSW,213,5.0,7.0,68,0.00,,SKC,0.00,0.00,VWS V14.01,2013-02-01 09:58:00,
2013-02-01 05:00:00,34.4,24.6,29.83,SSW,213,6.0,8.0,67,0.00,,SKC,0.00,0.00,VWS V14.01,2013-02-01 10:00:00,
2013-02-01 05:02:00,34.5,25.0,29.83,SW,219,5.0,9.0,68,0.00,,SKC,0.00,0.00,VWS V14.01,2013-02-01 10:02:00,
2013-02-01 05:03:00,34.5,25.0,29.83,SW,219,4.0,8.0,68,0.00,,SKC,0.00,0.00,VWS V14.01,2013-02-01 10:03:00,
2013-02-01 05:05:00,34.7,24.9,29.83,SW,221,5.0,10.0,67,0.00,,SKC,0.00,0.00,VWS V14.01,2013-02-01 10:05:00,
2013-02-01 05:06:00,34.7,24.9,29.83,SW,221,7.0,10.0,67,0.00,,SKC,0.00,0.00,VWS V14.01,2013-02-01 10:06:00,
2013-02-01 05:08:00,34.8,25.0,29.83,SW,221,6.0,10.0,67,0.00,,SKC,0.00,0.00,VWS V14.01,2013-02-01 10:08:00,
2013-02-01 05:09:00,34.8,25.0,29.83,SW,221,3.0,10.0,67,0.00,,SKC,0.00,0.00,VWS V14.01,2013-02-01 10:09:00,
2013-02-01 05:10:00,34.8,25.3,29.83,SW,221,4.0,10.0,68,0.00,,SKC,0.00,0.00,VWS V14.01,2013-02-01 10:10:00,
2013-02-01 05:12:00,34.9,25.1,29.83,SW,221,4.0,10.0,67,0.00,,SKC,0.00,0.00,VWS V14.01,2013-02-01 10:12:00,
2013-02-01 05:13:00,34.9,25.1,29.83,SW,222,3.0,10.0,67,0.00,,SKC,0.00,0.00,VWS V14.01,2013-02-01 10:13:00,
2013-02-01 05:14:00,35.0,25.2,29.83,WSW,240,9.0,10.0,67,0.00,,SKC,0.00,0.00,VWS V14.01,2013-02-01 10:14:00,
2013-02-01 05:15:00,35.0,25.2,29.83,WSW,241,4.0,12.0,67,0.00,,SKC,0.00,0.00,VWS V14.01,2013-02-01 10:15:00,
2013-02-01 05:17:00,35.1,25.3,29.83,West,259,6.0,12.0,67,0.00,,SKC,0.00,0.00,VWS V14.01,2013-02-01 10:17:00,
2013-02-01 05:18:00,35.1,25.3,29.83,WSW,258,5.0,12.0,67,0.00,,SKC,0.00,0.00,VWS V14.01,2013-02-01 10:18:00,
2013-02-01 05:20:00,35.2,25.4,29.83,WSW,250,6.0,12.0,67,0.00,,SKC,0.00,0.00,VWS V14.01,2013-02-01 10:20:00,
2013-02-01 05:22:00,35.2,25.4,29.84,WSW,250,4.0,12.0,67,0.00,,SKC,0.00,0.00,VWS V14.01,2013-02-01 10:22:00,
2013-02-01 05:23:00,35.3,25.5,29.84,WSW,251,6.0,12.0,67,0.00,,SKC,0.00,0.00,VWS V14.01,2013-02-01 10:23:00,
2013-02-01 05:25:00,35.3,25.5,29.84,WSW,252,10.0,12.0,67,0.00,,SKC,0.00,0.00,VWS V14.01,2013-02-01 10:25:00,
2013-02-01 05:27:00,35.5,25.6,29.84,WSW,252,6.0,12.0,67,0.00,,SKC,0.00,0.00,VWS V14.01,2013-02-01 10:27:00,
2013-02-01 05:28:00,35.5,25.6,29.84,WSW,252,3.0,12.0,67,0.00,,SKC,0.00,0.00,VWS V14.01,2013-02-01 10:28:00,
2013-02-01 05:30:00,35.6,25.7,29.85,West,273,10.0,12.0,67,0.00,,SKC,0.00,0.00,VWS V14.01,2013-02-01 10:30:00,
2013-02-01 05:31:00,35.5,26.0,29.85,WSW,252,4.0,12.0,68,0.00,,SKC,0.00,0.00,VWS V14.01,2013-02-01 10:31:00,
2013-02-01 05:33:00,35.6,25.7,29.85,West,265,9.0,12.0,67,0.00,,SKC,0.00,0.00,VWS V14.01,2013-02-01 10:33:00,
2013-02-01 05:36:00,35.6,25.7,29.86,West,271,10.0,10.0,67,0.00,,SKC,0.00,0.00,VWS V14.01,2013-02-01 10:36:00,
2013-02-01 05:38:00,35.7,25.8,29.87,West,264,13.0,16.0,67,0.00,,SKC,0.00,0.00,VWS V14.01,2013-02-01 10:38:00,
2013-02-01 05:39:00,35.7,25.8,29.87,West,280,12.0,16.0,67,0.00,,SKC,0.00,0.00,VWS V14.01,2013-02-01 10:39:00,
2013-02-01 05:41:00,35.8,25.9,29.88,West,279,12.0,16.0,67,0.00,,SKC,0.00,0.00,VWS V14.01,2013-02-01 10:41:00,
2013-02-01 05:43:00,35.8,25.9,29.89,West,262,12.0,16.0,67,0.00,,SKC,0.00,0.00,VWS V14.01,2013-02-01 10:43:00,
2013-02-01 05:44:00,35.9,25.7,29.89,West,277,13.0,17.0,66,0.00,,SKC,0.00,0.00,VWS V14.01,2013-02-01 10:44:00,
2013-02-01 05:46:00,35.9,27.8,29.88,WSW,248,15.0,26.0,72,0.00,,SKC,0.00,0.00,VWS V14.01,2013-02-01 10:46:00,
2013-02-01 05:48:00,35.8,27.7,29.89,West,259,13.0,26.0,72,0.00,,SKC,0.00,0.00,VWS V14.01,2013-02-01 10:48:00,
2013-02-01 05:49:00,35.7,27.9,29.89,WNW,294,19.0,26.0,73,0.00,,SKC,0.00,0.00,VWS V14.01,2013-02-01 10:49:00,
2013-02-01 05:52:00,35.5,28.4,29.89,West,268,17.0,28.0,75,0.00,,SKC,0.00,0.00,VWS V14.01,2013-02-01 10:52:00,
2013-02-01 05:53:00,35.2,28.4,29.90,WNW,292,15.0,28.0,76,0.00,,SKC,0.00,0.00,VWS V14.01,2013-02-01 10:53:00,
2013-02-01 05:54:00,35.2,28.4,29.90,West,263,21.0,28.0,76,0.00,,SKC,0.00,0.00,VWS V14.01,2013-02-01 10:54:00,
2013-02-01 05:57:00,34.8,28.3,29.89,West,264,14.0,28.0,77,0.00,,SKC,0.00,0.00,VWS V14.01,2013-02-01 10:57:00,
2013-02-01 05:58:00,34.8,28.3,29.90,West,265,15.0,28.0,77,0.00,,SKC,0.00,0.00,VWS V14.01,2013-02-01 10:58:00,
2013-02-01 05:59:00,34.7,28.5,29.90,West,260,15.0,28.0,78,0.00,,SKC,0.00,0.00,VWS V14.01,2013-02-01 10:59:00,
2013-02-01 06:00:00,34.6,28.5,29.91,WSW,252,13.0,28.0,78,0.00,,SKC,0.00,0.00,VWS V14.01,2013-02-01 11:00:00,
2013-02-01 06:02:00,34.4,28.3,29.90,West,272,15.0,28.0,78,0.00,,SKC,0.00,0.00,VWS V14.01,2013-02-01 11:02:00,
2013-02-01 06:03:00,34.4,28.3,29.90,West,276,14.0,28.0,78,0.00,,SKC,0.00,0.00,VWS V14.01,2013-02-01 11:03:00,
2013-02-01 06:04:00,34.4,28.3,29.91,West,271,15.0,15.0,78,0.00,,SKC,0.00,0.00,VWS V14.01,2013-02-01 11:04:00,
2013-02-01 06:05:00,34.4,28.3,29.91,West,265,10.0,19.0,78,0.00,,SKC,0.00,0.00,VWS V14.01,2013-02-01 11:05:00,
2013-02-01 06:07:00,34.4,28.6,29.92,WSW,257,17.0,19.0,79,0.00,,SKC,0.00,0.00,VWS V14.01,2013-02-01 11:07:00,
2013-02-01 06:08:00,34.4,28.6,29.92,West,275,15.0,19.0,79,0.00,,SKC,0.00,0.00,VWS V14.01,2013-02-01 11:08:00,
2013-02-01 06:09:00,34.4,28.3,29.92,West,275,10.0,19.0,78,0.00,,SKC,0.00,0.00,VWS V14.01,2013-02-01 11:09:00,
2013-02-01 06:10:00,34.4,28.3,29.92,West,281,10.0,19.0,78,0.00,,SKC,0.00,0.00,VWS V14.01,2013-02-01 11:10:00,
2013-02-01 06:13:00,34.4,28.3,29.93,West,276,24.0,24.0,78,0.00,,SKC,0.00,0.00,VWS V14.01,2013-02-01 11:13:00,
2013-02-01 06:14:00,34.4,28.0,29.92,WNW,288,9.0,24.0,77,0.00,,SKC,0.00,0.00,VWS V14.01,2013-02-01 11:14:00,
2013-02-01 06:15:00,34.4,27.6,29.92,WNW,291,14.0,24.0,76,0.00,,SKC,0.00,0.00,VWS V14.01,2013-02-01 11:15:00,
2013-02-01 06:18:00,34.4,27.6,29.93,WNW,290,14.0,24.0,76,0.00,,SKC,0.00,0.00,VWS V14.01,2013-02-01 11:18:00,
2013-02-01 06:19:00,34.4,27.0,29.93,West,277,11.0,24.0,74,0.00,,SKC,0.00,0.00,VWS V14.01,2013-02-01 11:19:00,
2013-02-01 06:20:00,34.4,27.0,29.93,NW,306,9.0,24.0,74,0.00,,SKC,0.00,0.00,VWS V14.01,2013-02-01 11:20:00,
2013-02-01 06:23:00,34.5,26.8,29.93,West,265,15.0,24.0,73,0.00,,SKC,0.00,0.00,VWS V14.01,2013-02-01 11:23:00,
2013-02-01 06:25:00,34.6,26.2,29.93,WNW,301,15.0,26.0,71,0.00,,SKC,0.00,0.00,VWS V14.01,2013-02-01 11:25:00,
2013-02-01 06:26:00,34.6,25.5,29.94,West,277,25.0,26.0,69,0.00,,SKC,0.00,0.00,VWS V14.01,2013-02-01 11:26:00,
2013-02-01 06:28:00,34.6,23.7,29.94,WNW,285,25.0,30.0,64,0.00,,SKC,0.00,0.00,VWS V14.01,2013-02-01 11:28:00,
2013-02-01 06:29:00,34.6,23.7,29.94,West,280,29.0,31.0,64,0.00,,SKC,0.00,0.00,VWS V14.01,2013-02-01 11:29:00,
2013-02-01 06:30:00,34.5,23.2,29.95,WNW,296,20.0,34.0,63,0.00,,SKC,0.00,0.00,VWS V14.01,2013-02-01 11:30:00,
2013-02-01 06:31:00,34.5,22.8,29.95,WNW,283,18.0,34.0,62,0.00,,SKC,0.00,0.00,VWS V14.01,2013-02-01 11:31:00,
2013-02-01 06:33:00,34.4,22.7,29.95,WNW,301,15.0,34.0,62,0.00,,SKC,0.00,0.00,VWS V14.01,2013-02-01 11:33:00,
2013-02-01 06:34:00,34.4,22.4,29.95,WNW,292,16.0,25.0,61,0.00,,SKC,0.00,0.00,VWS V14.01,2013-02-01 11:34:00,
2013-02-01 06:35:00,34.4,22.0,29.95,WNW,294,19.0,32.0,60,0.00,,SKC,0.00,0.00,VWS V14.01,2013-02-01 11:35:00,
2013-02-01 06:36:00,34.4,22.0,29.95,WNW,300,21.0,32.0,60,0.00,,SKC,0.00,0.00,VWS V14.01,2013-02-01 11:36:00,
2013-02-01 06:38:00,34.2,22.2,29.96,WNW,284,10.0,32.0,61,0.00,,SKC,0.00,0.00,VWS V14.01,2013-02-01 11:38:00,
2013-02-01 06:40:00,34.0,21.6,29.96,West,267,16.0,32.0,60,0.00,,SKC,0.00,0.00,VWS V14.01,2013-02-01 11:40:00,
2013-02-01 06:42:00,33.8,21.4,29.97,NW,319,22.0,22.0,60,0.00,,SKC,0.00,0.00,VWS V14.01,2013-02-01 11:42:00,
2013-02-01 06:43:00,33.7,20.5,29.96,West,267,22.0,25.0,58,0.00,,SKC,0.00,0.00,VWS V14.01,2013-02-01 11:43:00,
2013-02-01 06:45:00,33.6,20.4,29.97,West,269,19.0,25.0,58,0.00,,SKC,0.00,0.00,VWS V14.01,2013-02-01 11:45:00,
2013-02-01 06:47:00,33.3,19.3,29.97,NW,311,21.0,27.0,56,0.00,,SKC,0.00,0.00,VWS V14.01,2013-02-01 11:47:00,
2013-02-01 06:49:00,33.2,18.4,29.98,West,276,16.0,34.0,54,0.00,,SKC,0.00,0.00,VWS V14.01,2013-02-01 11:49:00,
2013-02-01 06:50:00,33.0,17.8,29.98,WNW,296,20.0,34.0,53,0.00,,SKC,0.00,0.00,VWS V14.01,2013-02-01 11:50:00,
2013-02-01 06:52:00,32.8,17.1,29.98,West,271,18.0,34.0,52,0.00,,SKC,0.00,0.00,VWS V14.01,2013-02-01 11:52:00,
2013-02-01 06:54:00,32.6,17.4,29.98,West,279,14.0,34.0,53,0.00,,SKC,0.00,0.00,VWS V14.01,2013-02-01 11:54:00,
2013-02-01 06:57:00,32.4,16.8,29.98,WNW,296,19.0,34.0,52,0.00,,SKC,0.00,0.00,VWS V14.01,2013-02-01 11:57:00,
2013-02-01 06:59:00,32.2,17.0,29.98,West,281,21.0,34.0,53,0.00,,SKC,0.00,0.00,VWS V14.01,2013-02-01 11:59:00,
2013-02-01 07:00:00,31.8,16.2,29.99,WNW,283,19.0,34.0,52,0.00,,SKC,0.00,0.00,VWS V14.01,2013-02-01 12:00:00,
2013-02-01 07:02:00,32.0,17.2,29.99,WNW,290,17.0,34.0,54,0.00,,SKC,0.00,0.00,VWS V14.01,2013-02-01 12:02:00,
2013-02-01 07:03:00,31.9,16.3,29.99,WNW,302,19.0,34.0,52,0.00,,SKC,0.00,0.00,VWS V14.01,2013-02-01 12:03:00,
2013-02-01 07:04:00,31.8,15.8,29.99,NW,317,22.0,24.0,51,0.00,,SKC,0.00,0.00,VWS V14.01,2013-02-01 12:04:00,
2013-02-01 07:07:00,31.4,14.9,29.99,WNW,283,18.0,28.0,50,0.00,,SKC,0.00,0.00,VWS V14.01,2013-02-01 12:07:00,
2013-02-01 07:08:00,31.3,14.8,29.99,West,268,23.0,28.0,50,0.00,,SKC,0.00,0.00,VWS V14.01,2013-02-01 12:08:00,
2013-02-01 07:09:00,31.2,14.7,29.99,WNW,292,23.0,33.0,50,0.00,,SKC,0.00,0.00,VWS V14.01,2013-02-01 12:09:00,
2013-02-01 07:12:00,30.9,14.0,30.00,NW,308,18.0,33.0,49,0.00,,SKC,0.00,0.00,VWS V14.01,2013-02-01 12:12:00,
2013-02-01 07:13:00,30.8,13.9,30.00,NW,304,15.0,33.0,49,0.00,,SKC,0.00,0.00,VWS V14.01,2013-02-01 12:13:00,
2013-02-01 07:14:00,30.8,14.4,30.00,West,277,15.0,33.0,50,0.00,,SKC,0.00,0.00,VWS V14.01,2013-02-01 12:14:00,
2013-02-01 07:17:00,30.5,13.6,30.00,West,269,13.0,33.0,49,0.00,,SKC,0.00,0.00,VWS V14.01,2013-02-01 12:17:00,
2013-02-01 07:18:00,30.5,14.1,30.01,West,279,11.0,33.0,50,0.00,,SKC,0.00,5.00,VWS V14.01,2013-02-01 12:18:00,
2013-02-01 07:19:00,30.4,13.5,30.01,WNW,284,18.0,33.0,49,0.00,,SKC,0.00,5.00,VWS V14.01,2013-02-01 12:19:00,
2013-02-01 07:20:00,30.4,14.0,30.01,WNW,300,13.0,33.0,50,0.00,,SKC,0.00,5.00,VWS V14.01,2013-02-01 12:20:00,
2013-02-01 07:22:00,30.3,13.9,30.01,WNW,294,7.0,33.0,50,0.00,,SKC,0.00,7.00,VWS V14.01,2013-02-01 12:22:00,
2013-02-01 07:23:00,30.2,13.8,30.02,WNW,300,23.0,33.0,50,0.00,,SKC,0.00,7.00,VWS V14.01,2013-02-01 12:23:00,
2013-02-01 07:25:00,30.2,13.4,30.02,WNW,283,14.0,33.0,49,0.00,,SKC,0.00,7.00,VWS V14.01,2013-02-01 12:25:00,
2013-02-01 07:27:00,30.0,13.2,30.02,WNW,302,25.0,33.0,49,0.00,,SKC,0.00,9.00,VWS V14.01,2013-02-01 12:27:00,
2013-02-01 07:28:00,30.0,13.6,30.03,WNW,292,24.0,33.0,50,0.00,,SKC,0.00,9.00,VWS V14.01,2013-02-01 12:28:00,
2013-02-01 07:30:00,29.9,13.1,30.03,NW,313,10.0,33.0,49,0.00,,SKC,0.00,9.00,VWS V14.01,2013-02-01 12:30:00,
2013-02-01 07:33:00,29.8,13.4,30.03,WNW,292,16.0,33.0,50,0.00,,SKC,0.00,11.00,VWS V14.01,2013-02-01 12:33:00,
2013-02-01 07:34:00,29.7,12.9,30.03,WNW,288,13.0,20.0,49,0.00,,SKC,0.00,11.00,VWS V14.01,2013-02-01 12:34:00,
2013-02-01 07:35:00,29.7,12.9,30.03,WNW,288,16.0,28.0,49,0.00,,SKC,0.00,12.00,VWS V14.01,2013-02-01 12:35:00,
2013-02-01 07:36:00,29.7,13.4,30.04,WNW,286,27.0,28.0,50,0.00,,SKC,0.00,12.00,VWS V14.01,2013-02-01 12:36:00,
2013-02-01 07:38:00,29.6,13.3,30.05,WNW,295,26.0,28.0,50,0.00,,SKC,0.00,14.00,VWS V14.01,2013-02-01 12:38:00,
2013-02-01 07:39:00,29.6,12.8,30.05,NW,313,17.0,28.0,49,0.00,,SKC,0.00,14.00,VWS V14.01,2013-02-01 12:39:00,
2013-02-01 07:40:00,29.6,12.8,30.05,West,281,21.0,28.0,49,0.00,,SKC,0.00,16.00,VWS V14.01,2013-02-01 12:40:00,
2013-02-01 07:41:00,29.6,13.3,30.05,West,274,16.0,28.0,50,0.00,,SKC,0.00,16.00,VWS V14.01,2013-02-01 12:41:00,
2013-02-01 07:43:00,29.5,12.7,30.05,West,272,18.0,28.0,49,0.00,,SKC,0.00,16.00,VWS V14.01,2013-02-01 12:43:00,
2013-02-01 07:44:00,29.5,12.7,30.05,WNW,283,16.0,28.0,49,0.00,,SKC,0.00,16.00,VWS V14.01,2013-02-01 12:44:00,
2013-02-01 07:46:00,29.5,12.2,30.05,NW,306,22.0,29.0,48,0.00,,SKC,0.00,18.00,VWS V14.01,2013-02-01 12:46:00,
2013-02-01 07:49:00,29.4,12.1,30.05,WNW,297,21.0,32.0,48,0.00,,SKC,0.00,19.00,VWS V14.01,2013-02-01 12:49:00,
2013-02-01 07:51:00,29.4,12.6,30.06,WNW,288,8.0,32.0,49,0.00,,SKC,0.00,23.00,VWS V14.01,2013-02-01 12:51:00,
2013-02-01 07:54:00,29.4,12.1,30.06,WNW,298,20.0,32.0,48,0.00,,SKC,0.00,28.00,VWS V14.01,2013-02-01 12:54:00,
2013-02-01 07:56:00,29.3,12.5,30.07,West,266,15.0,32.0,49,0.00,,SKC,0.00,32.00,VWS V14.01,2013-02-01 12:56:00,
2013-02-01 07:57:00,29.3,12.5,30.07,WNW,303,11.0,32.0,49,0.00,,SKC,0.00,35.00,VWS V14.01,2013-02-01 12:57:00,
2013-02-01 07:59:00,29.3,12.5,30.07,WNW,286,13.0,32.0,49,0.00,,SKC,0.00,40.00,VWS V14.01,2013-02-01 12:59:00,
2013-02-01 08:00:00,29.3,13.0,30.07,NW,305,12.0,32.0,50,0.00,,SKC,0.00,40.00,VWS V14.01,2013-02-01 13:00:00,
2013-02-01 08:01:00,29.2,13.3,30.08,NW,319,9.0,32.0,51,0.00,,SKC,0.00,44.00,VWS V14.01,2013-02-01 13:01:00,
2013-02-01 08:03:00,29.2,13.3,30.08,WNW,286,15.0,32.0,51,0.00,,SKC,0.00,47.00,VWS V14.01,2013-02-01 13:03:00,
2013-02-01 08:04:00,29.1,13.2,30.08,WNW,299,12.0,21.0,51,0.00,,SKC,0.00,53.00,VWS V14.01,2013-02-01 13:04:00,
2013-02-01 08:05:00,29.0,13.1,30.08,NW,319,23.0,24.0,51,0.00,,SKC,0.00,54.00,VWS V14.01,2013-02-01 13:05:00,
2013-02-01 08:06:00,28.9,13.1,30.08,WNW,290,21.0,30.0,51,0.00,,SKC,0.00,56.00,VWS V14.01,2013-02-01 13:06:00,
2013-02-01 08:08:00,28.7,12.9,30.08,WNW,286,14.0,30.0,51,0.00,,SKC,0.00,63.00,VWS V14.01,2013-02-01 13:08:00,
2013-02-01 08:09:00,28.6,13.2,30.08,WNW,287,7.0,30.0,52,0.00,,SKC,0.00,65.00,VWS V14.01,2013-02-01 13:09:00,
2013-02-01 08:10:00,28.5,13.1,30.08,West,275,20.0,30.0,52,0.00,,SKC,0.00,65.00,VWS V14.01,2013-02-01 13:10:00,
2013-02-01 08:11:00,28.4,13.0,30.08,West,269,23.0,30.0,52,0.00,,SKC,0.00,72.00,VWS V14.01,2013-02-01 13:11:00,
2013-02-01 08:13:00,28.3,12.5,30.09,West,281,16.0,30.0,51,0.00,,SKC,0.00,81.00,VWS V14.01,2013-02-01 13:13:00,
2013-02-01 08:15:00,28.2,12.0,30.08,NW,304,24.0,30.0,50,0.00,,SKC,0.00,83.00,VWS V14.01,2013-02-01 13:15:00,
2013-02-01 08:16:00,28.1,11.4,30.09,WNW,286,18.0,30.0,49,0.00,,SKC,0.00,90.00,VWS V14.01,2013-02-01 13:16:00,
2013-02-01 08:18:00,28.0,9.9,30.10,West,272,25.0,32.0,46,0.00,,SKC,0.00,98.00,VWS V14.01,2013-02-01 13:18:00,
2013-02-01 08:20:00,27.9,9.8,30.10,West,260,21.0,32.0,46,0.00,,SKC,0.00,100.00,VWS V14.01,2013-02-01 13:20:00,
2013-02-01 08:22:00,27.9,9.8,30.10,WNW,283,11.0,32.0,46,0.00,,SKC,0.00,107.00,VWS V14.01,2013-02-01 13:22:00,
2013-02-01 08:24:00,27.9,10.3,30.10,WNW,283,20.0,32.0,47,0.00,,SKC,0.00,118.00,VWS V14.01,2013-02-01 13:24:00,
2013-02-01 08:25:00,27.8,10.2,30.10,WNW,284,13.0,32.0,47,0.00,,SKC,0.00,120.00,VWS V14.01,2013-02-01 13:25:00,
2013-02-01 08:26:00,27.8,10.7,30.11,West,280,12.0,32.0,48,0.00,,SKC,0.00,123.00,VWS V14.01,2013-02-01 13:26:00,
2013-02-01 08:27:00,27.8,10.2,30.10,WNW,290,25.0,32.0,47,0.00,,SKC,0.00,125.00,VWS V14.01,2013-02-01 13:27:00,
2013-02-01 08:29:00,27.8,10.2,30.10,WNW,286,23.0,32.0,47,0.00,,SKC,0.00,135.00,VWS V14.01,2013-02-01 13:29:00,
2013-02-01 08:30:00,27.8,9.7,30.11,WNW,288,15.0,32.0,46,0.00,,SKC,0.00,139.00,VWS V14.01,2013-02-01 13:30:00,
2013-02-01 08:31:00,27.8,10.2,30.11,West,274,15.0,32.0,47,0.00,,SKC,0.00,141.00,VWS V14.01,2013-02-01 13:31:00,
2013-02-01 08:32:00,27.8,10.2,30.10,West,275,28.0,32.0,47,0.00,,SKC,0.00,144.00,VWS V14.01,2013-02-01 13:32:00,
2013-02-01 08:34:00,27.8,9.7,30.11,WNW,294,15.0,15.0,46,0.00,,SKC,0.00,155.00,VWS V14.01,2013-02-01 13:34:00,
2013-02-01 08:35:00,27.8,9.7,30.11,West,277,23.0,23.0,46,0.00,,SKC,0.00,156.00,VWS V14.01,2013-02-01 13:35:00,
2013-02-01 08:36:00,27.8,9.7,30.11,NW,306,9.0,23.0,46,0.00,,SKC,0.00,160.00,VWS V14.01,2013-02-01 13:36:00,
2013-02-01 08:37:00,27.8,9.7,30.11,NW,313,13.0,23.0,46,0.00,,SKC,0.00,162.00,VWS V14.01,2013-02-01 13:37:00,
2013-02-01 08:40:00,27.8,10.2,30.11,WNW,296,18.0,23.0,47,0.00,,SKC,0.00,171.00,VWS V14.01,2013-02-01 13:40:00,
2013-02-01 08:41:00,27.8,10.2,30.11,West,273,23.0,27.0,47,0.00,,SKC,0.00,178.00,VWS V14.01,2013-02-01 13:41:00,
2013-02-01 08:42:00,27.8,9.2,30.11,West,277,24.0,28.0,45,0.00,,SKC,0.00,181.00,VWS V14.01,2013-02-01 13:42:00,
2013-02-01 08:45:00,27.6,8.6,30.12,NW,309,16.0,28.0,44,0.00,,SKC,0.00,192.00,VWS V14.01,2013-02-01 13:45:00,
2013-02-01 08:46:00,27.6,8.0,30.12,West,278,16.0,28.0,43,0.00,,SKC,0.00,197.00,VWS V14.01,2013-02-01 13:46:00,
2013-02-01 08:47:00,27.6,8.0,30.12,WNW,292,17.0,28.0,43,0.00,,SKC,0.00,199.00,VWS V14.01,2013-02-01 13:47:00,
2013-02-01 08:50:00,27.6,8.6,30.13,WNW,298,18.0,28.0,44,0.00,,SKC,0.00,207.00,VWS V14.01,2013-02-01 13:50:00,
2013-02-01 08:51:00,27.5,7.9,30.13,WNW,295,18.0,28.0,43,0.00,,SKC,0.00,211.00,VWS V14.01,2013-02-01 13:51:00,
2013-02-01 08:52:00,27.5,7.9,30.13,WNW,299,16.0,28.0,43,0.00,,SKC,0.00,218.00,VWS V14.01,2013-02-01 13:52:00,
2013-02-01 08:55:00,27.4,8.4,30.13,WNW,299,16.0,28.0,44,0.00,,SKC,0.00,223.00,VWS V14.01,2013-02-01 13:55:00,
2013-02-01 08:56:00,27.4,8.4,30.13,WNW,290,6.0,28.0,44,0.00,,SKC,0.00,227.00,VWS V14.01,2013-02-01 13:56:00,
2013-02-01 08:57:00,27.4,9.4,30.13,West,261,12.0,28.0,46,0.00,,SKC,0.00,229.00,VWS V14.01,2013-02-01 13:57:00,
2013-02-01 09:00:00,27.4,6.8,30.13,West,272,17.0,28.0,41,0.00,,SKC,0.00,243.00,VWS V14.01,2013-02-01 14:00:00,
2013-02-01 09:01:00,27.4,7.3,30.13,West,268,23.0,28.0,42,0.00,,SKC,0.00,243.00,VWS V14.01,2013-02-01 14:01:00,
2013-02-01 09:02:00,27.4,7.3,30.13,West,267,23.0,28.0,42,0.00,,SKC,0.00,246.00,VWS V14.01,2013-02-01 14:02:00,
2013-02-01 09:05:00,27.2,7.7,30.13,NW,308,10.0,19.0,43,0.00,,SKC,0.00,262.00,VWS V14.01,2013-02-01 14:05:00,
2013-02-01 09:06:00,27.2,7.2,30.13,NW,311,15.0,24.0,42,0.00,,SKC,0.00,265.00,VWS V14.01,2013-02-01 14:06:00,
2013-02-01 09:07:00,27.2,7.2,30.13,WNW,296,20.0,24.0,42,0.00,,SKC,0.00,269.00,VWS V14.01,2013-02-01 14:07:00,
2013-02-01 09:11:00,27.3,7.8,30.14,WNW,300,16.0,24.0,43,0.00,,SKC,0.00,279.00,VWS V14.01,2013-02-01 14:11:00,
2013-02-01 09:12:00,27.3,7.8,30.14,West,269,16.0,24.0,43,0.00,,SKC,0.00,285.00,VWS V14.01,2013-02-01 14:12:00,
2013-02-01 09:13:00,27.3,6.7,30.14,WNW,287,15.0,24.0,41,0.00,,SKC,0.00,288.00,VWS V14.01,2013-02-01 14:13:00,
2013-02-01 09:16:00,27.4,7.3,30.15,West,278,20.0,24.0,42,0.00,,SKC,0.00,294.00,VWS V14.01,2013-02-01 14:16:00,
2013-02-01 09:17:00,27.4,6.3,30.15,WNW,286,28.0,29.0,40,0.00,,SKC,0.00,301.00,VWS V14.01,2013-02-01 14:17:00,
2013-02-01 09:18:00,27.3,6.2,30.15,WNW,291,18.0,29.0,40,0.00,,SKC,0.00,302.00,VWS V14.01,2013-02-01 14:18:00,
2013-02-01 09:19:00,27.2,5.5,30.15,NW,309,34.0,34.0,39,0.00,,SKC,0.00,304.00,VWS V14.01,2013-02-01 14:19:00,
2013-02-01 09:21:00,27.0,5.9,30.15,West,269,21.0,34.0,40,0.00,,SKC,0.00,311.00,VWS V14.01,2013-02-01 14:21:00,
2013-02-01 09:22:00,26.9,5.3,30.15,WNW,299,21.0,34.0,39,0.00,,SKC,0.00,313.00,VWS V14.01,2013-02-01 14:22:00,
2013-02-01 09:23:00,26.9,5.3,30.15,NW,319,14.0,34.0,39,0.00,,SKC,0.00,315.00,VWS V14.01,2013-02-01 14:23:00,
2013-02-01 09:24:00,26.9,5.8,30.15,West,281,21.0,34.0,40,0.00,,SKC,0.00,318.00,VWS V14.01,2013-02-01 14:24:00,
2013-02-01 09:26:00,26.8,5.7,30.15,NW,309,19.0,34.0,40,0.00,,SKC,0.00,325.00,VWS V14.01,2013-02-01 14:26:00,
2013-02-01 09:27:00,26.8,5.2,30.15,NW,313,25.0,34.0,39,0.00,,SKC,0.00,325.00,VWS V14.01,2013-02-01 14:27:00,
2013-02-01 09:28:00,26.8,5.7,30.15,NW,306,26.0,34.0,40,0.00,,SKC,0.00,329.00,VWS V14.01,2013-02-01 14:28:00,
2013-02-01 09:29:00,26.7,6.2,30.15,NNW,330,16.0,34.0,41,0.00,,SKC,0.00,330.00,VWS V14.01,2013-02-01 14:29:00,
2013-02-01 09:30:00,26.8,5.2,30.16,WNW,286,22.0,34.0,39,0.00,,SKC,0.00,341.00,VWS V14.01,2013-02-01 14:30:00,
2013-02-01 09:31:00,26.8,6.3,30.16,NW,304,15.0,34.0,41,0.00,,SKC,0.00,338.00,VWS V14.01,2013-02-01 14:31:00,
2013-02-01 09:33:00,26.8,6.3,30.16,West,281,24.0,34.0,41,0.00,,SKC,0.00,338.00,VWS V14.01,2013-02-01 14:33:00,
2013-02-01 09:34:00,26.7,5.1,30.16,NNW,328,14.0,31.0,39,0.00,,SKC,0.00,341.00,VWS V14.01,2013-02-01 14:34:00,
2013-02-01 09:37:00,26.7,5.6,30.16,WNW,303,21.0,31.0,40,0.00,,SKC,0.00,348.00,VWS V14.01,2013-02-01 14:37:00,
2013-02-01 09:38:00,26.7,6.2,30.16,NW,315,24.0,31.0,41,0.00,,SKC,0.00,355.00,VWS V14.01,2013-02-01 14:38:00,
2013-02-01 09:40:00,26.6,5.6,30.16,WNW,299,16.0,31.0,40,0.00,,SKC,0.00,359.00,VWS V14.01,2013-02-01 14:40:00,
2013-02-01 09:42:00,26.6,6.1,30.16,WNW,299,19.0,31.0,41,0.00,,SKC,0.00,364.00,VWS V14.01,2013-02-01 14:42:00,
2013-02-01 09:43:00,26.6,6.1,30.16,WNW,288,17.0,31.0,41,0.00,,SKC,0.00,369.00,VWS V14.01,2013-02-01 14:43:00,
2013-02-01 09:44:00,26.7,6.2,30.16,WNW,288,15.0,31.0,41,0.00,,SKC,0.00,369.00,VWS V14.01,2013-02-01 14:44:00,
2013-02-01 09:45:00,26.7,6.7,30.16,WNW,302,21.0,31.0,42,0.00,,SKC,0.00,369.00,VWS V14.01,2013-02-01 14:45:00,
2013-02-01 09:47:00,26.8,6.8,30.17,West,273,18.0,31.0,42,0.00,,SKC,0.00,376.00,VWS V14.01,2013-02-01 14:47:00,
2013-02-01 09:48:00,26.8,6.3,30.17,NW,304,23.0,31.0,41,0.00,,SKC,0.00,378.00,VWS V14.01,2013-02-01 14:48:00,
2013-02-01 09:50:00,26.9,6.9,30.17,WNW,297,14.0,31.0,42,0.00,,SKC,0.00,383.00,VWS V14.01,2013-02-01 14:50:00,
2013-02-01 09:52:00,26.9,6.9,30.17,NW,306,13.0,31.0,42,0.00,,SKC,0.00,387.00,VWS V14.01,2013-02-01 14:52:00,
2013-02-01 09:53:00,27.0,6.4,30.17,NW,313,15.0,31.0,41,0.00,,SKC,0.00,392.00,VWS V14.01,2013-02-01 14:53:00,
2013-02-01 09:54:00,27.0,7.0,30.17,NW,304,15.0,31.0,42,0.00,,SKC,0.00,392.00,VWS V14.01,2013-02-01 14:54:00,
2013-02-01 09:55:00,27.0,7.0,30.17,West,274,16.0,31.0,42,0.00,,SKC,0.00,397.00,VWS V14.01,2013-02-01 14:55:00,
2013-02-01 09:57:00,26.9,6.4,30.17,NW,323,13.0,31.0,41,0.00,,SKC,0.00,399.00,VWS V14.01,2013-02-01 14:57:00,
2013-02-01 09:58:00,26.8,5.7,30.17,WNW,301,17.0,31.0,40,0.00,,SKC,0.00,404.00,VWS V14.01,2013-02-01 14:58:00,
2013-02-01 09:59:00,26.8,6.3,30.17,WNW,294,15.0,31.0,41,0.00,,SKC,0.00,404.00,VWS V14.01,2013-02-01 14:59:00,
2013-02-01 10:00:00,26.7,6.7,30.17,West,280,15.0,31.0,42,0.00,,SKC,0.00,413.00,VWS V14.01,2013-02-01 15:00:00,
2013-02-01 10:01:00,26.7,6.2,30.17,West,261,8.0,31.0,41,0.00,,SKC,0.00,408.00,VWS V14.01,2013-02-01 15:01:00,
2013-02-01 10:02:00,26.7,6.7,30.17,West,267,18.0,31.0,42,0.00,,SKC,0.00,411.00,VWS V14.01,2013-02-01 15:02:00,
2013-02-01 10:03:00,26.7,6.7,30.17,West,279,12.0,15.0,42,0.00,,SKC,0.00,413.00,VWS V14.01,2013-02-01 15:03:00,
2013-02-01 10:06:00,26.9,6.9,30.17,WNW,284,11.0,19.0,42,0.00,,SKC,0.00,418.00,VWS V14.01,2013-02-01 15:06:00,
2013-02-01 10:08:00,27.0,7.0,30.17,WSW,254,16.0,19.0,42,0.00,,SKC,0.00,424.00,VWS V14.01,2013-02-01 15:08:00,
2013-02-01 10:09:00,27.0,7.0,30.17,West,277,17.0,21.0,42,0.00,,SKC,0.00,429.00,VWS V14.01,2013-02-01 15:09:00,
2013-02-01 10:11:00,27.0,7.0,30.17,WNW,286,19.0,21.0,42,0.00,,SKC,0.00,429.00,VWS V14.01,2013-02-01 15:11:00,
2013-02-01 10:12:00,27.1,7.6,30.17,WNW,300,18.0,23.0,43,0.00,,SKC,0.00,432.00,VWS V14.01,2013-02-01 15:12:00,
2013-02-01 10:13:00,27.0,7.0,30.18,NW,321,19.0,24.0,42,0.00,,SKC,0.00,436.00,VWS V14.01,2013-02-01 15:13:00,
2013-02-01 10:14:00,26.9,6.9,30.18,WNW,292,11.0,24.0,42,0.00,,SKC,0.00,438.00,VWS V14.01,2013-02-01 15:14:00,
2013-02-01 10:16:00,26.9,7.9,30.18,West,268,11.0,24.0,44,0.00,,SKC,0.00,441.00,VWS V14.01,2013-02-01 15:16:00,
2013-02-01 10:17:00,27.0,8.0,30.18,West,277,20.0,26.0,44,0.00,,SKC,0.00,445.00,VWS V14.01,2013-02-01 15:17:00,
2013-02-01 10:18:00,27.0,7.0,30.18,West,273,12.0,26.0,42,0.00,,SKC,0.00,446.00,VWS V14.01,2013-02-01 15:18:00,
2013-02-01 10:20:00,27.0,7.0,30.18,West,263,16.0,26.0,42,0.00,,SKC,0.00,448.00,VWS V14.01,2013-02-01 15:20:00,
2013-02-01 10:22:00,27.0,7.5,30.19,West,259,14.0,26.0,43,0.00,,SKC,0.00,454.00,VWS V14.01,2013-02-01 15:22:00,
2013-02-01 10:23:00,27.1,8.1,30.19,West,271,16.0,26.0,44,0.00,,SKC,0.00,455.00,VWS V14.01,2013-02-01 15:23:00,
2013-02-01 10:25:00,27.1,7.6,30.19,WNW,283,18.0,26.0,43,0.00,,SKC,0.00,461.00,VWS V14.01,2013-02-01 15:25:00,
2013-02-01 10:27:00,27.1,7.6,30.19,West,277,23.0,31.0,43,0.00,,SKC,0.00,464.00,VWS V14.01,2013-02-01 15:27:00,
2013-02-01 10:28:00,27.1,7.6,30.19,West,263,23.0,31.0,43,0.00,,SKC,0.00,466.00,VWS V14.01,2013-02-01 15:28:00,
2013-02-01 10:30:00,27.1,7.6,30.19,West,265,19.0,31.0,43,0.00,,SKC,0.00,471.00,VWS V14.01,2013-02-01 15:30:00,
2013-02-01 10:32:00,27.0,7.0,30.19,West,267,21.0,31.0,42,0.00,,SKC,0.00,475.00,VWS V14.01,2013-02-01 15:32:00,
2013-02-01 10:33:00,27.0,7.0,30.19,West,265,24.0,31.0,42,0.00,,SKC,0.00,475.00,VWS V14.01,2013-02-01 15:33:00,
2013-02-01 10:35:00,27.0,7.5,30.19,WNW,289,10.0,21.0,43,0.00,,SKC,0.00,482.00,VWS V14.01,2013-02-01 15:35:00,
2013-02-01 10:38:00,27.1,8.1,30.19,WNW,283,17.0,27.0,44,0.00,,SKC,0.00,485.00,VWS V14.01,2013-02-01 15:38:00,
2013-02-01 10:39:00,27.2,7.2,30.19,West,262,19.0,29.0,42,0.00,,SKC,0.00,487.00,VWS V14.01,2013-02-01 15:39:00,
2013-02-01 10:41:00,27.1,6.5,30.20,WNW,284,26.0,29.0,41,0.00,,SKC,0.00,492.00,VWS V14.01,2013-02-01 15:41:00,
2013-02-01 10:43:00,27.1,6.5,30.20,NW,306,15.0,29.0,41,0.00,,SKC,0.00,494.00,VWS V14.01,2013-02-01 15:43:00,
2013-02-01 10:44:00,27.1,7.1,30.20,West,279,12.0,29.0,42,0.00,,SKC,0.00,494.00,VWS V14.01,2013-02-01 15:44:00,
2013-02-01 10:46:00,27.1,7.1,30.20,NNW,333,18.0,29.0,42,0.00,,SKC,0.00,501.00,VWS V14.01,2013-02-01 15:46:00,
2013-02-01 10:49:00,27.0,7.0,30.20,NW,316,18.0,29.0,42,0.00,,SKC,0.00,504.00,VWS V14.01,2013-02-01 15:49:00,
2013-02-01 10:51:00,27.0,7.0,30.20,NW,319,14.0,29.0,42,0.00,,SKC,0.00,506.00,VWS V14.01,2013-02-01 15:51:00,
2013-02-01 10:54:00,27.1,7.6,30.20,NW,304,17.0,29.0,43,0.00,,SKC,0.00,513.00,VWS V14.01,2013-02-01 15:54:00,
2013-02-01 10:56:00,27.0,7.5,30.20,WNW,283,15.0,29.0,43,0.00,,SKC,0.00,515.00,VWS V14.01,2013-02-01 15:56:00,
2013-02-01 10:59:00,27.0,8.0,30.21,WNW,294,11.0,29.0,44,0.00,,SKC,0.00,520.00,VWS V14.01,2013-02-01 15:59:00,
2013-02-01 11:00:00,27.3,7.8,30.21,WNW,293,22.0,29.0,43,0.00,,SKC,0.00,527.00,VWS V14.01,2013-02-01 16:00:00,
2013-02-01 11:01:00,27.1,7.6,30.20,WNW,298,9.0,29.0,43,0.00,,SKC,0.00,522.00,VWS V14.01,2013-02-01 16:01:00,
2013-02-01 11:04:00,27.4,7.9,30.21,NW,306,15.0,22.0,43,0.00,,SKC,0.00,529.00,VWS V14.01,2013-02-01 16:04:00,
2013-02-01 11:05:00,27.4,7.9,30.21,NW,310,13.0,22.0,43,0.00,,SKC,0.00,529.00,VWS V14.01,2013-02-01 16:05:00,
2013-02-01 11:07:00,27.4,8.4,30.21,NW,323,21.0,22.0,44,0.00,,SKC,0.00,529.00,VWS V14.01,2013-02-01 16:07:00,
2013-02-01 11:09:00,27.4,7.3,30.21,NW,312,16.0,22.0,42,0.00,,SKC,0.00,534.00,VWS V14.01,2013-02-01 16:09:00,
2013-02-01 11:10:00,27.4,7.3,30.21,NW,315,19.0,22.0,42,0.00,,SKC,0.00,534.00,VWS V14.01,2013-02-01 16:10:00,
2013-02-01 11:12:00,27.5,8.5,30.21,NW,304,15.0,22.0,44,0.00,,SKC,0.00,538.00,VWS V14.01,2013-02-01 16:12:00,
2013-02-01 11:14:00,27.8,9.2,30.22,WNW,302,8.0,22.0,45,0.00,,SKC,0.00,547.00,VWS V14.01,2013-02-01 16:14:00,
2013-02-01 11:15:00,27.8,9.2,30.22,NW,320,11.0,22.0,45,0.00,,SKC,0.00,547.00,VWS V14.01,2013-02-01 16:15:00,
2013-02-01 11:16:00,27.9,9.3,30.22,NNW,332,11.0,22.0,45,0.00,,SKC,0.00,543.00,VWS V14.01,2013-02-01 16:16:00,
2013-02-01 11:17:00,28.0,9.4,30.22,NNW,329,21.0,22.0,45,0.00,,SKC,0.00,547.00,VWS V14.01,2013-02-01 16:17:00,
2013-02-01 11:20:00,28.0,9.4,30.22,WNW,302,13.0,26.0,45,0.00,,SKC,0.00,545.00,VWS V14.01,2013-02-01 16:20:00,
2013-02-01 11:21:00,28.1,10.5,30.22,West,275,10.0,26.0,47,0.00,,SKC,0.00,547.00,VWS V14.01,2013-02-01 16:21:00,
2013-02-01 11:22:00,28.2,9.6,30.22,West,271,15.0,26.0,45,0.00,,SKC,0.00,548.00,VWS V14.01,2013-02-01 16:22:00,
2013-02-01 11:25:00,28.3,9.2,30.22,West,267,24.0,26.0,44,0.00,,SKC,0.00,552.00,VWS V14.01,2013-02-01 16:25:00,
2013-02-01 11:26:00,28.3,8.7,30.22,WNW,296,22.0,26.0,43,0.00,,SKC,0.00,557.00,VWS V14.01,2013-02-01 16:26:00,
2013-02-01 11:27:00,28.3,8.7,30.22,WNW,283,12.0,26.0,43,0.00,,SKC,0.00,555.00,VWS V14.01,2013-02-01 16:27:00,
2013-02-01 11:30:00,28.2,8.6,30.23,WNW,292,15.0,26.0,43,0.00,,SKC,0.00,546.00,VWS V14.01,2013-02-01 16:30:00,
2013-02-01 12:00:00,27.8,9.2,30.22,WNW,292,17.0,27.0,45,0.00,,SKC,0.00,578.00,VWS V14.01,2013-02-01 17:00:00,
2013-02-01 12:30:00,28.4,7.7,30.22,WNW,292,16.0,29.0,41,0.00,,SKC,0.00,594.00,VWS V14.01,2013-02-01 17:30:00,
2013-02-01 13:00:00,29.5,8.7,30.20,WNW,292,13.0,25.0,41,0.00,,SKC,0.00,595.00,VWS V14.01,2013-02-01 18:00:00,
2013-02-01 13:30:00,30.0,8.6,30.20,WNW,292,12.0,21.0,40,0.00,,SKC,0.00,580.00,VWS V14.01,2013-02-01 18:30:00,
2013-02-01 14:00:00,30.0,8.6,30.21,West,270,13.0,20.0,40,0.00,,SKC,0.00,552.00,VWS V14.01,2013-02-01 19:00:00,
2013-02-01 14:30:00,30.9,10.0,30.22,WNW,292,11.0,22.0,41,0.00,,SKC,0.00,509.00,VWS V14.01,2013-02-01 19:30:00,
2013-02-01 15:00:00,31.9,10.3,30.23,WNW,292,9.0,22.0,40,0.00,,SKC,0.00,453.00,VWS V14.01,2013-02-01 20:00:00,
2013-02-01 15:30:00,31.8,9.1,30.24,West,270,12.0,21.0,38,0.00,,SKC,0.00,388.00,VWS V14.01,2013-02-01 20:30:00,
2013-02-01 16:00:00,32.1,9.4,30.25,WNW,292,10.0,21.0,38,0.00,,SKC,0.00,309.00,VWS V14.01,2013-02-01 21:00:00,
2013-02-01 16:30:00,31.0,9.0,30.26,WNW,292,11.0,21.0,39,0.00,,SKC,0.00,215.00,VWS V14.01,2013-02-01 21:30:00,
2013-02-01 17:00:00,30.4,8.4,30.26,WNW,292,11.0,21.0,39,0.00,,SKC,0.00,109.00,VWS V14.01,2013-02-01 22:00:00,
2013-02-01 17:30:00,29.4,7.5,30.27,WNW,292,7.0,17.0,39,0.00,,SKC,0.00,28.00,VWS V14.01,2013-02-01 22:30:00,
2013-02-01 18:00:00,28.5,7.8,30.29,NW,315,4.0,12.0,41,0.00,,SKC,0.00,2.00,VWS V14.01,2013-02-01 23:00:00,
2013-02-01 18:30:00,27.7,8.1,30.29,WNW,292,4.0,9.0,43,0.00,,SKC,0.00,0.00,VWS V14.01,2013-02-01 23:30:00,
2013-02-01 19:00:00,27.1,7.6,30.31,WNW,292,5.0,10.0,43,0.00,,SKC,0.00,0.00,VWS V14.01,2013-02-02 00:00:00,
2013-02-01 19:30:00,26.5,8.0,30.32,NW,315,4.0,9.0,45,0.00,,SKC,0.00,0.00,VWS V14.01,2013-02-02 00:30:00,
2013-02-01 20:00:00,26.0,7.6,30.33,WNW,292,4.0,9.0,45,0.00,,SKC,0.00,0.00,VWS V14.01,2013-02-02 01:00:00,
2013-02-01 20:30:00,25.4,7.5,30.34,NW,315,4.0,9.0,46,0.00,,SKC,0.00,0.00,VWS V14.01,2013-02-02 01:30:00,
2013-02-01 21:00:00,24.8,7.9,30.35,WNW,292,4.0,10.0,48,0.00,,SKC,0.00,0.00,VWS V14.01,2013-02-02 02:00:00,
2013-02-01 21:30:00,24.5,7.6,30.37,WNW,292,5.0,9.0,48,0.00,,SKC,0.00,0.00,VWS V14.01,2013-02-02 02:30:00,
2013-02-01 22:00:00,24.3,7.4,30.36,NW,315,5.0,13.0,48,0.00,,SKC,0.00,0.00,VWS V14.01,2013-02-02 03:00:00,
2013-02-01 22:30:00,24.2,7.3,30.37,WNW,292,6.0,15.0,48,0.00,,SKC,0.00,0.00,VWS V14.01,2013-02-02 03:30:00,
2013-02-01 23:00:00,23.8,7.0,30.38,NW,315,4.0,9.0,48,0.00,,SKC,0.00,0.00,VWS V14.01,2013-02-02 04:00:00,
2013-02-01 23:30:00,23.4,8.4,30.37,NW,315,1.0,9.0,52,0.00,,SKC,0.00,0.00,VWS V14.01,2013-02-02 04:30:00,